Voltar ao catálogo

DELTA 1 DEB

AtivoPO
NORAD 12278·DEBRIS·🇺🇸 United States

Lançado Mar 5, 1978 de Vandenberg Space Force Base

Loading…

Próximas Passagens (próximas 24 horas)

TLE

AtualizadoSource: Space-Track

Época: Sep 14, 2026, 01:21 UTC

1 12278U 78026DW  26257.05687252  .00001907  00000-0  53069-3 0  9993
2 12278  99.1311  96.0099 0038885  48.3775 112.1195 14.47240747356054

Acompanhe DELTA 1 DEB em tempo real com AllMySat

Download on the App Store